Warrenton, VA

5:14 AM EST on November 20, 2017 (GMT -0500)
Warrenton

Weather History for KHWY - February, 2014

Change the Weather History Date:

Wednesday, February 19, 2014

  Actual Average (KHEF) Record (KHEF)
Temperature  
Mean Temperature 46 °F -  
Max Temperature 64 °F 46 °F 71 °F (1997)
Min Temperature 29 °F 25 °F 8 °F (2015)
Degree Days  
Heating Degree Days 18    
Moisture  
Dew Point 37 °F    
Average Humidity 71    
Maximum Humidity 99    
Minimum Humidity 39    
Precipitation  
Precipitation 0.00 in - - ()
Sea Level Pressure  
Sea Level Pressure 29.90 in    
Wind  
Wind Speed 5 mph (SW)    
Max Wind Speed 14 mph    
Max Gust Speed 24 mph    
Visibility 10 miles    
Events Rain , Thunderstorm    
Averages and records for this station are not official NWS values.
T = Trace of Precipitation, MM = Missing Value Source: NWS Daily Summary

Daily Weather History Graph

Daily Weather History Graph

Search for Another Location

Airport or City:

Trip Planner

Search our weather history database for the weather conditions in past years. The results will help you decide how hot, cold, wet, or windy it might be!

Date:

Astronomy

Feb. 19, 2014 Rise Set
Actual Time 6:56 AM EST 5:53 PM EST
Civil Twilight 6:29 AM EST 6:20 PM EST
Nautical Twilight 5:58 AM EST 6:51 PM EST
Astronomical Twilight 5:28 AM EST 7:21 PM EST
Moon 10:40 PM EST (2/19) 9:04 AM EST (2/19)
Length of Visible Light 11h 50m
Length of Day
10h 56m
Waning Gibbous, 80% of the Moon is Illuminated
Feb 19
Waning Gibbous
Feb 22
Last Quarter
Mar 1
New
Mar 8
First Quarter
Mar 16
Full

Hourly Weather History & Observations

Time (EST) Temp. Windchill Dew Point Humidity Pressure Visibility Wind Dir Wind Speed Gust Speed Precip Events Conditions
12:55 AM 30.7 °F - 28.9 °F 93% 30.04 in 10.0 mi Calm Calm - N/A   Clear
1:15 AM 29.5 °F - 28.8 °F 97% 30.03 in 10.0 mi Calm Calm - N/A   Clear
1:35 AM 30.2 °F - 28.8 °F 94% 30.03 in 10.0 mi Calm Calm - N/A   Clear
1:55 AM 37.0 °F 34.5 °F 28.0 °F 70% 30.02 in 10.0 mi South 3.5 mph - N/A   Clear
2:15 AM 32.2 °F - 28.4 °F 86% 30.01 in 10.0 mi Calm Calm - N/A   Clear
2:35 AM 31.1 °F - 28.2 °F 89% 30.00 in 10.0 mi Calm Calm - N/A   Clear
2:55 AM 33.3 °F 30.2 °F 28.2 °F 82% 29.97 in 10.0 mi SSE 3.5 mph - N/A   Clear
3:15 AM 38.5 °F - 28.2 °F 67% 29.97 in 10.0 mi Calm Calm - N/A   Clear
3:35 AM 33.8 °F - 28.4 °F 81% 29.95 in 10.0 mi Calm Calm - N/A   Clear
3:55 AM 32.4 °F - 28.8 °F 87% 29.95 in 10.0 mi Calm Calm - N/A   Scattered Clouds
4:15 AM 32.2 °F - 29.8 °F 91% 29.94 in 10.0 mi Calm Calm - N/A   Scattered Clouds
4:35 AM 32.9 °F - 29.8 °F 88% 29.92 in 10.0 mi Calm Calm - N/A   Mostly Cloudy
4:55 AM 32.0 °F - 30.6 °F 94% 29.92 in 10.0 mi Calm Calm - N/A   Mostly Cloudy
5:15 AM 32.9 °F - 31.8 °F 96% 29.90 in 10.0 mi Calm Calm - N/A   Mostly Cloudy
5:35 AM 32.9 °F - 31.8 °F 96% 29.90 in 10.0 mi Calm Calm - N/A   Overcast
5:55 AM 35.2 °F - 32.0 °F 88% 29.88 in 10.0 mi Calm Calm - N/A   Overcast
6:15 AM 35.8 °F 33.0 °F 32.0 °F 86% 29.88 in 10.0 mi South 3.5 mph - N/A   Overcast
6:35 AM 43.0 °F 41.3 °F 31.8 °F 65% 29.87 in 10.0 mi South 3.5 mph - N/A   Overcast
6:55 AM 42.8 °F 40.1 °F 32.0 °F 66% 29.85 in 10.0 mi South 4.6 mph - N/A   Mostly Cloudy
7:15 AM 43.2 °F 39.7 °F 32.9 °F 67% 29.85 in 10.0 mi South 5.8 mph - N/A   Overcast
7:35 AM 44.4 °F 41.2 °F 34.2 °F 67% 29.84 in 10.0 mi South 5.8 mph - N/A   Overcast
7:55 AM 44.8 °F 41.0 °F 34.9 °F 68% 29.82 in 10.0 mi South 6.9 mph - N/A   Scattered Clouds
8:15 AM 45.7 °F 41.5 °F 34.9 °F 66% 29.84 in 10.0 mi SSW 8.1 mph - N/A   Mostly Cloudy
8:35 AM 45.5 °F 43.2 °F 35.4 °F 68% 29.83 in 10.0 mi South 4.6 mph - N/A Rain Light Rain
8:55 AM 44.1 °F 39.5 °F 37.6 °F 78% 29.86 in 10.0 mi SSW 8.1 mph - N/A Rain Light Rain
9:15 AM 43.5 °F 38.3 °F 41.0 °F 91% 29.84 in 7.0 mi SSW 9.2 mph - N/A Rain , Thunderstorm Rain
9:35 AM 43.3 °F 38.1 °F 42.3 °F 96% 29.83 in 10.0 mi SSW 9.2 mph - N/A   Overcast
9:55 AM 43.9 °F 38.8 °F 43.0 °F 97% 29.83 in 10.0 mi SW 9.2 mph 17.3 mph N/A Rain Rain
10:15 AM 44.1 °F 39.5 °F 43.7 °F 99% 29.82 in 10.0 mi SSW 8.1 mph 16.1 mph N/A Rain Light Rain
10:35 AM 45.3 °F 41.6 °F 44.8 °F 98% 29.82 in 10.0 mi SW 6.9 mph - N/A   Overcast
10:55 AM 47.7 °F - 45.9 °F 93% 29.81 in 10.0 mi SW 9.2 mph - N/A   Mostly Cloudy
11:15 AM 49.3 °F - 45.7 °F 87% 29.80 in 10.0 mi SSW 11.5 mph 17.3 mph N/A   Clear
11:35 AM 50.4 °F - 45.7 °F 84% 29.79 in 10.0 mi SSW 13.8 mph 17.3 mph N/A   Clear
11:55 AM 51.8 °F - 46.0 °F 81% 29.79 in 10.0 mi SW 10.4 mph 17.3 mph N/A   Clear
12:15 PM 53.2 °F - 46.6 °F 78% 29.78 in 10.0 mi SSW 11.5 mph 17.3 mph N/A   Clear
12:35 PM 54.5 °F - 47.3 °F 77% 29.76 in 10.0 mi SSW 10.4 mph 16.1 mph N/A   Clear
12:55 PM 55.4 °F - 47.7 °F 75% 29.75 in 10.0 mi SSW 9.2 mph 17.3 mph N/A   Clear
1:15 PM 56.7 °F - 48.6 °F 74% 29.74 in 10.0 mi SSW 11.5 mph 16.1 mph N/A   Clear
1:35 PM 58.1 °F - 49.1 °F 72% 29.72 in 10.0 mi SSW 8.1 mph 16.1 mph N/A   Clear
1:55 PM 59.7 °F - 49.8 °F 70% 29.72 in 10.0 mi SSW 12.7 mph 19.6 mph N/A   Clear
2:15 PM 61.0 °F - 50.2 °F 68% 29.72 in 10.0 mi SW 12.7 mph 18.4 mph N/A   Clear
2:35 PM 62.1 °F - 50.2 °F 65% 29.71 in 10.0 mi SSW 10.4 mph 19.6 mph N/A   Scattered Clouds
2:55 PM 61.0 °F - 50.4 °F 68% 29.72 in 10.0 mi SSW 11.5 mph 16.1 mph N/A   Mostly Cloudy
3:15 PM 62.2 °F - 51.1 °F 67% 29.72 in 10.0 mi SSW 10.4 mph - N/A   Mostly Cloudy
3:35 PM 63.1 °F - 51.1 °F 65% 29.73 in 10.0 mi SSW 9.2 mph - N/A   Mostly Cloudy
3:55 PM 63.3 °F - 49.8 °F 61% 29.75 in 10.0 mi SW 13.8 mph - N/A   Scattered Clouds
4:04 PM 64.4 °F - 48.2 °F 56% 29.76 in 10.0 mi SW 11.5 mph 23.0 mph N/A   Clear
4:15 PM 63.7 °F - 49.1 °F 59% 29.77 in 10.0 mi SW 9.2 mph 17.3 mph N/A   Clear
4:35 PM 63.9 °F - 41.9 °F 45% 29.79 in 10.0 mi West 13.8 mph 24.2 mph N/A   Clear
4:55 PM 63.3 °F - 41.2 °F 44% 29.81 in 10.0 mi West 8.1 mph 18.4 mph N/A   Clear
5:15 PM 61.0 °F - 42.3 °F 50% 29.83 in 10.0 mi West 4.6 mph - N/A   Scattered Clouds
5:35 PM 60.3 °F - 38.1 °F 44% 29.85 in 10.0 mi West 12.7 mph 20.7 mph N/A   Clear
5:55 PM 59.5 °F - 34.7 °F 39% 29.87 in 10.0 mi West 10.4 mph 20.7 mph N/A   Clear
6:15 PM 56.5 °F - 34.2 °F 43% 29.90 in 10.0 mi West 5.8 mph - N/A   Clear
6:35 PM 56.8 °F - 33.3 °F 41% 29.93 in 10.0 mi West 9.2 mph - N/A   Clear
6:55 PM 54.7 °F - 32.0 °F 42% 29.95 in 10.0 mi West 5.8 mph - N/A   Clear
7:15 PM 50.7 °F - 32.0 °F 49% 29.97 in 10.0 mi West 6.9 mph - N/A   Clear
7:35 PM 51.8 °F - 32.0 °F 47% 29.98 in 10.0 mi West 8.1 mph - N/A   Clear
7:55 PM 50.2 °F - 32.4 °F 50% 29.99 in 10.0 mi NW 10.4 mph - N/A   Clear
8:15 PM 50.0 °F - 32.9 °F 52% 30.01 in 10.0 mi NNW 4.6 mph - N/A   Clear
8:35 PM 48.6 °F - 31.8 °F 52% 30.04 in 10.0 mi ESE 3.5 mph - N/A   Clear
8:55 PM 45.5 °F 40.8 °F 31.8 °F 59% 30.05 in 10.0 mi NW 9.2 mph - N/A   Clear
9:15 PM 46.9 °F - 32.9 °F 58% 30.05 in 10.0 mi NNW 10.4 mph - N/A   Clear
9:35 PM 46.4 °F 42.9 °F 33.3 °F 60% 30.07 in 10.0 mi NNW 6.9 mph - N/A   Clear
9:55 PM 44.4 °F 42.0 °F 32.2 °F 62% 30.08 in 10.0 mi NNE 4.6 mph - N/A   Clear
10:15 PM 47.8 °F - 32.0 °F 54% 30.10 in 10.0 mi NNE 5.8 mph - N/A   Clear
10:35 PM 43.0 °F 38.8 °F 33.3 °F 69% 30.11 in 10.0 mi NNW 6.9 mph - N/A   Clear
10:55 PM 43.7 °F 39.1 °F 33.6 °F 68% 30.11 in 10.0 mi NNE 8.1 mph - N/A   Clear
11:35 PM 44.4 °F 40.5 °F 34.3 °F 68% 30.13 in 10.0 mi East 6.9 mph - N/A   Clear
11:42 PM 44.6 °F 40.7 °F 33.8 °F 66% 30.13 in 10.0 mi East 6.9 mph - N/A   Clear
11:55 PM 44.1 °F - 33.8 °F 67% 30.13 in 10.0 mi Calm Calm - N/A   Clear